Flag for Canada Weather past 2 weeks in Dieppe, New Brunswick, Canada

Now
46 °F

Drizzle. Low clouds.


Feels Like: 41 °F
Forecast: 42 / 49 °F
Wind: 13 mph from Northeast

Location: Moncton

Current Time: Jun 3, 2015 at 2:57:34 PM

Latest Report: Jun 3, 2015 at 2:00 PM


Visibility: 10 mi

Pressure: 30.14 "Hg

Humidity: 87%

Dew point: 43 °F

Location of DieppeLocation

Historic Weather in Dieppe — Graph

°F

Dieppe temperature yesterday

Maximum temperature yesterday: 45 °F (at 9:00 AM)
Minimum temperature yesterday: 39 °F (at 12:00 AM)
Average temperature yesterday: 42 °F

Past Weeks' High & Low Weather Summary

 TemperatureHumidityPressure
High84 °F (May 25, 3:00 PM)100% (May 26, 9:02 AM)30.42 "Hg (May 26, 9:02 AM)
Low36 °F (May 23, 6:00 AM)22% (May 25, 3:00 PM)29.41 "Hg (May 20, 5:00 PM)
Average56 °F70%30.01 "Hg
* Reported May 19 2:00 PM — Jun 3 2:00 PM, Dieppe, Weather by CustomWeather, © 2015

Note: Actual official high and low records may vary slightly from our data, if they occured in-between our weather recording intervals... More about our weather records

Advertising

Dieppe weather history for previous 24 hours

 ConditionsComfort  
Time TempWeatherWind HumidityBarometerVisibility
2:00 PM
Wed, Jun 3
46 °FDrizzle. Low clouds.13 mph87%30.14 "Hg10 mi
1:00 PM46 °FDrizzle. Fog.14 mph87%30.14 "Hg5 mi
12:00 PM46 °FDrizzle. Fog.16 mph93%30.12 "Hg1 mi
11:00 AM46 °FDrizzle. Fog.13 mph93%30.12 "Hg1 mi
10:00 AM45 °FDrizzle. Fog.13 mph93%30.11 "Hg2 mi
9:00 AM45 °FDrizzle. Fog.10 mph100%30.11 "Hg2 mi
8:00 AM45 °FDrizzle. Fog.7 mph93%30.10 "Hg1 mi
7:00 AM43 °FLight rain. Fog.8 mph100%30.10 "Hg1 mi
6:00 AM43 °FLight rain. Fog.6 mph93%30.11 "Hg2 mi
5:53 AM43 °FLight rain. Fog.6 mph93%30.11 "Hg3 mi
5:00 AM41 °FLight rain. Fog.5 mph100%30.10 "Hg6 mi
4:00 AM41 °FLight rain. Fog.5 mph100%30.11 "Hg6 mi
3:00 AM43 °FLight rain. Fog.12 mph93%30.09 "Hg6 mi
2:00 AM43 °FLight rain. Fog.13 mph93%30.11 "Hg6 mi
1:00 AM43 °FLight rain. Mostly cloudy.15 mph93%30.13 "Hg8 mi
12:00 AM41 °FLight rain. Mostly cloudy.13 mph100%30.16 "Hg10 mi
11:00 PM
Tue, Jun 2
41 °FLight rain. Overcast.12 mph100%30.19 "Hg12 mi
10:00 PM41 °FMore clouds than sun.9 mph93%30.20 "Hg15 mi
9:00 PM41 °FLight rain. Mostly cloudy.7 mph87%30.20 "Hg15 mi
8:00 PM43 °FLight rain. More clouds than sun.8 mph87%30.21 "Hg15 mi
7:00 PM43 °FLight rain. More clouds than sun.8 mph87%30.24 "Hg15 mi
6:00 PM43 °FLight rain. Mostly cloudy.14 mph87%30.24 "Hg14 mi
5:00 PM45 °FLight rain. Mostly cloudy.14 mph81%30.27 "Hg15 mi
4:50 PM45 °FCloudy.15 mph87%30.26 "Hg15 mi
4:00 PM45 °FLight rain. More clouds than sun.10 mph87%30.28 "Hg12 mi
3:00 PM45 °FMore clouds than sun.9 mph87%30.32 "Hg10 mi
2:00 PM45 °FOvercast.9 mph81%30.34 "Hg12 mi
Weather by CustomWeather, © 2015

See weather overviewHow to use our weather pages